Location: Gannat
(46.1002°N, 3.1989°E)
Time: 02:48:40
(UTC+00:00)

Daily predictions for brighter satellites

Satellite Brightness Start Highest point End
(mag) Time Altitude Azimuth Time Altitude Azimuth Time Altitude Azimuth
USA 215 4.2 02:49:50 10° NE 02:54:03 43° NE 02:54:03 43° NE
Cosmos 2237 Rocket 4.0 03:19:53 24° NNE 03:19:53 24° NNE 03:22:04 10° NNE
NOSS 3-1 (A) 4.2 03:19:35 68° SE 03:19:35 68° SE 03:26:57 10° SE
CZ-4C R/B 3.7 03:21:53 30° NNE 03:21:53 30° NNE 03:25:20 10° NNE
Cosmos 2219 Rocket 4.4 03:26:42 15° N 03:26:42 15° N 03:28:00 10° N
USA 267 4.3 03:23:27 10° SE 03:26:50 33° SSE 03:26:50 33° SSE
Cosmos 1943 Rocket 3.0 03:37:56 41° NNE 03:38:58 46° ENE 03:44:15 10° SE
Cosmos 1605 Rocket 4.4 03:37:25 10° N 03:43:36 61° ENE 03:49:39 10° SSE
Lacrosse 5 2.9 03:45:19 43° E 03:45:19 43° E 03:48:48 10° ESE
ATLAS CENTAUR R/B 3.4 03:52:19 25° NNE 03:52:19 25° NNE 03:54:14 10° NNE
PAYLOAD A 4.3 03:54:32 10° NNE 03:58:46 63° NE 03:58:46 63° NE
SL-16 R/B 2.5 04:01:35 55° N 04:01:35 55° N 04:06:12 10° NNE
MSX 3.9 03:55:14 10° NNE 04:00:16 68° NNW 04:00:16 68° NNW
CZ-2C R/B 2.8 03:56:00 10° NNE 04:01:10 65° ESE 04:01:40 61° SE
Cosmos 2251 Rocket 4.0 04:03:08 50° N 04:03:08 50° N 04:07:07 10° NNE
IDEFIX/ARIANE 42P 4.0 04:03:04 10° N 04:05:34 27° NNW 04:05:34 27° NNW
BREEZE-M DEB (TANK) 3.1 04:09:15 68° N 04:09:33 70° NNE 04:20:22 10° ESE
Cosmos 2369 Rocket 2.5 04:06:41 17° NNW 04:11:08 64° ENE 04:16:48 10° SE
H-2A R/B 3.6 04:08:07 10° NNE 04:12:22 45° E 04:15:05 21° SSE
Cosmos 1727 Rocket 4.4 04:06:28 10° S 04:12:31 61° E 04:18:35 10° NNE
Cosmos 1500 Rocket 4.4 04:10:18 10° N 04:14:38 49° ENE 04:18:54 10° SSE
Cosmos 1603 4.4 04:13:19 20° S 04:17:05 52° ESE 04:22:36 10° NE
Cosmos 1339 Rocket 4.3 04:15:29 42° SSW 04:17:40 83° W 04:23:50 10° N
Cosmos 1943 4.3 04:15:50 10° S 04:21:05 43° ESE 04:26:23 10° NE
Aureole 2 Rocket 4.1 04:25:19 27° ESE 04:25:19 27° ESE 04:27:11 10° SE
Cosmos 1743 Rocket 3.6 04:22:55 10° N 04:27:15 73° E 04:31:34 10° SSE
CZ-4B R/B 4.3 04:23:28 10° NNE 04:27:49 69° ESE 04:30:00 29° S
Shenzhou-11 Module 4.5 04:35:31 16° SE 04:35:31 16° SE 04:36:26 10° ESE
Cosmos 2100 Rocket 4.4 04:28:54 10° N 04:35:04 62° ENE 04:41:09 10° SSE
USA 215 4.0 04:32:56 10° NE 04:38:55 40° NNW 04:41:24 29° WNW
Cosmos 1140 Rocket 4.4 04:33:56 10° S 04:38:56 48° ESE 04:43:59 10° NNE
ADEOS 3.8 04:34:51 10° N 04:39:45 45° WNW 04:39:45 45° WNW
Cosmos 407 Rocket 3.8 04:35:15 11° S 04:40:23 69° ESE 04:45:39 10° NNE
Cosmos 1842 Rocket 3.4 04:40:29 56° SW 04:41:17 71° W 04:45:46 10° N
Meteor 2-3 Rocket 3.7 04:35:57 10° NNW 04:41:40 68° W 04:47:25 10° S
Cosmos 1459 Rocket 4.3 04:39:34 10° N 04:45:45 68° E 04:51:59 10° SSE
BREEZE M DEB (TANK) 3.1 04:45:29 47° NNW 04:46:02 54° N 04:52:26 10° E
Cosmos 921 Rocket 3.2 04:41:59 10° NNW 04:46:25 70° ENE 04:50:44 10° SSE
GEOS 3 Rocket 3.8 04:41:22 10° NE 04:46:42 75° SE 04:50:29 20° SSW
Cosmos 1484 Rocket 2.9 04:43:43 10° NNE 04:47:41 75° ESE 04:51:40 10° S
BREEZE M DEB (TANK) 4.3 04:44:01 21° WNW 04:51:37 43° SW 04:55:58 10° SSE
STARLINK-1099 4.4 04:50:25 29° SSW 04:52:05 46° SE 04:56:01 10° ENE
STARLINK-1070 2.9 04:54:20 69° E 04:54:20 69° E 04:57:04 10° ENE
STARLINK-1124 2.9 04:54:42 67° ENE 04:54:42 67° ENE 04:57:17 10° ENE
STARLINK-1066 2.9 04:54:55 70° E 04:54:55 70° E 04:57:38 10° ENE
STARLINK-1081 2.9 04:55:08 71° E 04:55:08 71° E 04:57:51 10° ENE
STARLINK-1069 2.8 04:55:34 72° ESE 04:55:34 72° ESE 04:58:19 10° ENE
STARLINK-1085 2.8 04:55:46 73° E 04:55:46 73° E 04:58:32 10° ENE
STARLINK-1086 2.8 04:56:03 74° ESE 04:56:03 74° ESE 04:58:49 10° ENE
STARLINK-1095 2.8 04:56:13 74° ESE 04:56:13 74° ESE 04:58:59 10° ENE
STARLINK-1077 2.8 04:56:24 74° E 04:56:24 74° E 04:59:10 10° ENE
STARLINK-1075 2.8 04:56:39 75° ESE 04:56:39 75° ESE 04:59:26 10° ENE
STARLINK-1093 2.7 04:56:52 76° ESE 04:56:52 76° ESE 04:59:40 10° ENE
STARLINK-1104 4.3 04:55:03 28° SSW 04:56:53 50° SE 05:00:51 10° ENE
STARLINK-1074 2.7 04:57:06 77° ESE 04:57:06 77° ESE 04:59:55 10° ENE
STARLINK-1087 2.7 04:57:18 77° ESE 04:57:18 77° ESE 05:00:07 10° ENE
STARLINK-1088 2.7 04:57:29 77° ESE 04:57:29 77° ESE 05:00:18 10° ENE
STARLINK-1115 2.7 04:57:45 78° ESE 04:57:45 78° ESE 05:00:34 10° ENE
STARLINK-1076 2.7 04:57:57 79° ESE 04:57:57 79° ESE 05:00:48 10° ENE
STARLINK-1092 2.7 04:58:10 80° ESE 04:58:10 80° ESE 05:01:01 10° ENE
STARLINK-1080 2.7 04:58:22 81° ESE 04:58:22 81° ESE 05:01:13 10° ENE
STARLINK-1090 2.6 04:58:36 81° ESE 04:58:36 81° ESE 05:01:29 10° ENE
Cosmos 2221 2.4 04:56:38 27° SSW 04:58:46 59° W 05:03:03 10° N
STARLINK-1089 2.6 04:58:51 82° ESE 04:58:51 82° ESE 05:01:44 10° ENE
STARLINK-1107 2.6 04:59:03 82° ESE 04:59:03 82° ESE 05:01:55 10° ENE
STARLINK-1109 2.6 04:59:15 83° ESE 04:59:15 83° ESE 05:02:08 10° ENE
STARLINK-1091 2.6 04:59:29 84° SE 04:59:29 84° SE 05:02:23 10° ENE
Cosmos 614 Rocket 3.8 04:55:34 17° SSW 04:59:36 74° WNW 05:04:50 10° NNE
STARLINK-1072 2.6 04:59:39 84° SE 04:59:39 84° SE 05:02:34 10° ENE
COSMO-SKYMED 1 2.5 04:55:18 10° SSE 04:59:39 89° NE 05:04:01 10° NNW
STARLINK-1096 2.6 04:59:53 84° ESE 04:59:53 84° ESE 05:02:47 10° ENE
STARLINK-1079 2.6 05:00:06 85° SE 05:00:06 85° SE 05:03:01 10° ENE
STARLINK-1116 2.6 05:00:20 86° SSE 05:00:20 86° SSE 05:03:17 10° ENE
STARLINK-1094 2.5 05:00:46 86° S 05:00:47 86° SSE 05:03:43 10° ENE
STARLINK-1117 2.6 05:00:59 87° SSE 05:01:00 87° SSE 05:03:56 10° ENE
STARLINK-1078 2.5 05:01:13 86° S 05:01:14 87° SSE 05:04:10 10° ENE
STARLINK-1144 4.1 04:59:24 27° SSW 05:01:24 54° SE 05:05:24 10° ENE
STARLINK-1108 2.5 05:01:25 86° SSW 05:01:27 88° SSE 05:04:23 10° ENE
STARLINK-1071 2.5 05:01:37 87° SSW 05:01:39 88° SE 05:04:35 10° ENE
Cosmos 2237 Rocket 4.1 05:01:42 13° NW 05:01:51 13° NW 05:04:33 10° N
STARLINK-1110 2.5 05:01:52 85° SW 05:01:56 88° SE 05:04:52 10° ENE
STARLINK-1122 2.5 05:02:15 85° SW 05:02:20 89° SSE 05:05:16 10° ENE
STARLINK-1126 2.5 05:02:29 84° SW 05:02:34 89° ESE 05:05:30 10° ENE
STARLINK-1082 2.5 05:02:43 84° WSW 05:02:48 89° SW 05:05:44 10° ENE
STARLINK-1100 2.5 05:02:56 83° WSW 05:03:02 90° NE 05:05:58 10° ENE
STARLINK-1083 2.5 05:03:09 82° WSW 05:03:15 89° NW 05:06:11 10° ENE
STARLINK-1125 2.5 05:03:21 82° WSW 05:03:28 89° N 05:06:23 10° ENE
Cosmos 1190 Rocket 3.9 05:00:07 10° SSW 05:05:24 87° WNW 05:10:45 10° NNE
METEOR-M 4.4 05:00:10 10° NNE 05:05:32 73° ESE 05:10:52 10° S
STARLINK-1128 3.9 05:04:16 26° SW 05:06:21 60° SE 05:10:21 10° ENE
STARLINK-1103 4.0 05:04:22 25° SW 05:06:33 59° SE 05:10:36 10° ENE
PSLV R/B 3.7 05:04:23 10° NNE 05:08:09 83° ESE 05:11:57 10° SSW
CZ-4C R/B 4.0 05:07:04 15° NW 05:09:39 19° NNW 05:14:13 10° NNE
STARLINK-1113 3.8 05:08:39 24° SW 05:10:56 65° SE 05:14:57 10° ENE
STARLINK-1101 3.9 05:09:02 23° SW 05:11:24 64° SE 05:15:28 10° ENE
Meteor 1-27 4.3 05:06:04 10° SSW 05:11:28 52° WNW 05:16:54 10° N
Cosmos 1238 Rocket 3.8 05:05:36 10° N 05:11:44 77° E 05:16:51 10° SSE
Cosmos 1802 Rocket 4.1 05:05:17 10° N 05:11:46 87° E 05:18:12 10° S
USA 267 4.5 05:09:20 10° SSW 05:13:45 19° WSW 05:14:14 19° WSW
BREEZE-M DEB (TANK) 4.3 05:08:43 10° SW 05:14:31 34° SSE 05:17:07 10° E
STARLINK-1119 3.7 05:13:12 22° SW 05:15:40 70° SE 05:19:42 10° ENE
Meteor 1-31 Rocket 3.4 05:12:42 10° N 05:16:08 33° WNW 05:16:45 31° W
STARLINK-1179 4.3 05:15:26 20° NNW 05:16:12 22° NNE 05:18:24 10° ENE
STARLINK-1102 3.8 05:13:42 22° SW 05:16:16 69° SE 05:20:21 10° ENE
Cosmos 1238 4.2 05:14:46 22° SSW 05:16:30 54° W 05:19:37 10° N
STARLINK-1176 4.4 05:15:58 20° NNW 05:16:48 23° NNE 05:19:01 10° ENE
STARLINK-1114 3.7 05:17:36 21° SW 05:20:14 75° SE 05:24:17 10° ENE
STARLINK-1111 3.7 05:18:24 20° SW 05:21:09 75° SE 05:25:15 10° ENE
Meteor 2-2 Rocket 4.4 05:16:25 10° SSW 05:22:24 65° WNW 05:28:25 10° N
Cosmos 1943 Rocket 2.9 05:19:34 18° WNW 05:22:29 29° WSW 05:27:08 10° SSW
CZ-4B R/B 3.3 05:19:31 10° N 05:22:52 33° WNW 05:24:17 24° WSW
Cosmos 676 Rocket 4.1 05:17:49 10° SSW 05:23:08 82° ESE 05:28:30 10° NNE
STARLINK-1130 (DARKSAT) 3.6 05:21:45 19° SW 05:24:32 80° SSE 05:28:36 10° ENE
STARLINK-1073 3.6 05:23:01 18° SW 05:25:56 80° SSE 05:30:04 10° ENE
Lacrosse 5 2.8 05:24:33 22° W 05:26:25 28° SW 05:30:40 10° S
STARLINK-1084 3.5 05:26:37 18° SW 05:29:38 86° SE 05:33:42 10° ENE
ATLAS CENTAUR R/B 3.5 05:28:31 13° NW 05:29:38 14° NNW 05:31:55 10° N
STARLINK-1121 3.6 05:27:42 17° SW 05:30:50 86° SE 05:34:58 10° ENE
ALOS 2.3 05:29:43 10° N 05:34:18 56° WNW 05:38:51 10° SSW
Cosmos 2016 Rocket 4.0 05:28:35 10° NNW 05:34:50 77° W 05:41:08 10° S
STARLINK-1106 3.5 05:32:32 15° WSW 05:35:50 88° NW 05:39:58 10° ENE
CZ-2C R/B 3.8 05:35:13 10° NNW 05:38:51 20° WNW 05:41:04 15° W
STARLINK-1112 3.5 05:37:13 14° WSW 05:40:45 83° NNW 05:44:52 10° ENE
Cosmos 1869 4.1 05:37:32 10° SW 05:41:04 30° WNW 05:44:36 10° NNW
Cosmos 1400 Rocket 2.8 05:37:04 10° S 05:41:05 87° WNW 05:45:12 10° N
ISS -0.5 05:42:28 10° SSE 05:43:46 12° SE 05:45:05 10° ESE
STARLINK-1118 3.2 05:42:59 21° WNW 05:44:08 34° NNW 05:46:29 10° NE
FENGYUN 3A 3.8 05:38:51 10° N 05:44:10 54° WNW 05:49:26 10° SW
NOAA 6 4.1 05:39:22 10° NNE 05:44:34 89° E 05:49:44 10° SSW
Cosmos 1633 3.3 05:41:32 10° NNW 05:44:46 30° W 05:47:58 10° SSW
ATLAS 2AS CENTAUR R/B 3.8 05:37:29 10° NW 05:44:55 47° NE 05:51:45 10° ESE
Sich 1 3.1 05:40:45 10° NNW 05:44:56 54° W 05:49:08 10° S
Cosmos 1805 Rocket 3.9 05:41:03 10° NNW 05:45:05 39° W 05:49:07 10° SSW
SL-16 R/B 3.9 05:43:29 12° WNW 05:45:46 15° NW 05:49:01 10° N
ADEOS Rocket 3.2 05:40:49 10° SSE 05:47:06 87° WSW 05:54:11 10° NNW
H-2A R/B 3.9 05:44:13 10° NNW 05:47:34 22° WNW 05:50:58 10° WSW
SKYMED 2 4.4 05:44:06 10° SSW 05:47:53 29° W 05:51:42 10° NW
Cosmos 2084 3.6 05:45:02 10° SW 05:49:30 62° NW 05:53:57 10° NE
Cosmos 1763 Rocket 4.3 05:44:31 10° NNW 05:49:47 55° ENE 05:54:59 10° SE
STARLINK-1129 4.2 05:48:55 11° NW 05:51:53 34° NNE 05:54:56 10° E
Cosmos 2233 Rocket 4.2 05:45:44 10° N 05:52:02 78° E 05:58:20 10° SSE
TELKOM 3 3.6 05:50:42 15° NW 05:52:13 37° NNE 05:54:14 10° E
STARLINK-1134 4.2 05:51:01 10° NW 05:54:04 35° NNE 05:57:08 10° E
Cosmos 2369 Rocket 3.4 05:50:25 10° NW 05:54:37 21° W 05:58:49 10° SSW
STARLINK-1135 4.2 05:53:30 10° NW 05:56:35 36° NNE 05:59:40 10° E
H-2A R/B 3.2 05:52:50 10° NNE 05:56:36 65° ESE 06:00:16 10° S
Aureole 2 Rocket 4.2 05:57:41 11° W 05:57:44 11° W 05:58:43 10° WSW
STARLINK-1141 4.1 05:55:50 10° NW 05:58:57 37° NNE 06:02:02 10° E
STARLINK-1140 4.1 05:58:11 10° NW 06:01:19 38° NNE 06:04:26 10° E
STARLINK-1149 3.7 05:59:57 10° NW 06:02:34 38° NNE 06:05:11 10° E
Cosmos 1656 Rocket 4.2 05:58:01 10° NW 06:03:14 38° WSW 06:08:25 10° S
STARLINK-1156 4.1 06:00:32 10° NW 06:03:39 39° NNE 06:06:47 10° E
Cosmos 1943 3.9 06:00:11 10° WSW 06:05:15 34° NW 06:10:22 10° NNE
STARLINK-1148 4.0 06:02:53 10° NW 06:06:03 40° NNE 06:09:11 10° E
STARLINK-1153 3.8 06:03:44 10° NW 06:06:31 39° NNE 06:09:18 10° E
STARLINK-1180 3.8 06:03:56 10° NW 06:06:45 39° NNE 06:09:32 10° E
STARLINK-1174 3.7 06:04:24 10° NW 06:07:11 39° NNE 06:09:59 10° E
STARLINK-1139 3.7 06:04:39 10° NW 06:07:26 39° NNE 06:10:13 10° E
Okean O Rocket 1.7 06:03:09 10° N 06:07:27 56° WNW 06:11:42 10° SSW
STARLINK-1133 3.7 06:04:51 10° NW 06:07:39 39° NNE 06:10:27 10° E
STARLINK-1151 3.7 06:05:06 10° NW 06:07:54 39° NNE 06:10:41 10° E
STARLINK-1158 4.0 06:05:14 10° NW 06:08:24 41° NNE 06:11:33 10° E
STARLINK-1160 3.7 06:05:46 10° NW 06:08:34 40° NNE 06:11:21 10° E
STARLINK-1161 3.7 06:05:58 10° NW 06:08:47 40° NNE 06:11:34 10° E
Shenzhou-11 Module 2.6 06:06:28 10° WSW 06:08:58 39° S 06:11:29 10° ESE
STARLINK-1145 3.7 06:06:13 10° NW 06:09:01 40° NNE 06:11:48 10° E
STARLINK-1172 3.7 06:06:25 10° NW 06:09:13 40° NNE 06:12:01 10° E
STARLINK-1182 3.7 06:06:52 10° NW 06:09:41 40° NNE 06:12:29 10° E
STARLINK-1164 3.7 06:07:05 10° NW 06:09:54 40° NNE 06:12:42 10° E
STARLINK-1168 3.7 06:07:19 10° NW 06:10:07 41° NNE 06:12:55 10° E
STARLINK-1183 3.7 06:08:00 10° NW 06:10:49 41° NNE 06:13:36 10° E
STARLINK-1181 3.7 06:08:12 10° NW 06:11:01 41° NNE 06:13:49 10° E
Cosmos 1151 Rocket 3.0 06:06:43 10° SSW 06:11:02 77° W 06:15:24 10° N
STARLINK-1196 3.6 06:08:53 10° NW 06:11:42 42° NNE 06:14:31 10° E
STARLINK-1186 3.6 06:09:20 10° NW 06:12:09 42° NNE 06:14:57 10° E
STARLINK-1185 3.6 06:09:33 10° NW 06:12:23 42° NNE 06:15:11 10° E
STARLINK-1175 3.6 06:09:47 10° NW 06:12:36 42° NNE 06:15:25 10° E
STARLINK-1147 3.6 06:10:01 10° NW 06:12:50 42° NNE 06:15:39 10° E
STARLINK-1132 3.4 06:10:08 10° NW 06:12:51 45° NNE 06:15:34 10° E
STARLINK-1146 3.6 06:10:13 10° NW 06:13:03 42° NNE 06:15:52 10° E
YAOGAN 6 4.4 06:09:55 10° NNE 06:13:12 36° E 06:16:30 10° SSE
STARLINK-1152 3.6 06:10:29 10° NW 06:13:18 43° NNE 06:16:08 10° E
STARLINK-1195 3.6 06:10:41 10° NW 06:13:31 43° NNE 06:16:20 10° E
SMAP 3.3 06:08:56 10° NNE 06:13:37 78° ESE 06:18:16 10° S
STARLINK-1137 3.6 06:10:55 10° NW 06:13:44 43° NNE 06:16:33 10° E
STARLINK-1142 3.6 06:11:08 10° NW 06:13:58 43° NNE 06:16:47 10° E
STARLINK-1127 3.6 06:11:21 10° NW 06:14:10 43° NNE 06:17:00 10° E
STARLINK-1184 3.6 06:11:35 10° NW 06:14:24 43° NNE 06:17:13 10° E
STARLINK-1193 3.6 06:11:48 10° NW 06:14:38 43° NNE 06:17:27 10° E
STARLINK-1194 3.6 06:12:02 10° NW 06:14:52 43° NNE 06:17:41 10° E
CZ-4B R/B 3.2 06:09:56 10° N 06:15:09 59° WNW 06:20:20 10° SSW
